When you browse on this site, cookies collect data to enhance your experience and personalize the content and advertising you see.
Visit our Privacy Policy to learn more. By continuing to use the site, you agree to this use of cookies and data.
  • In Czech Republic
  • List of Countries
  • For 7 days
  • Water Temperature
  • Weather Map
  • Weather Widgets
  • user-avatar
    Login

    Hourly Weather Nakhchivan

    Today, 4 April, Saturday

    Time Temperature Precipitation Wind Pressure Humidity
    00:00 +15°C° 0 mm 2 mps 685 mmHg 51%
    01:00 +14°C° 0.5 mm 2 mps 685 mmHg 60%
    02:00 +13°C° 0.5 mm 2 mps 685 mmHg 69%
    03:00 +12°C° 0 mm 1 mps 684 mmHg 78%
    04:00 +12°C° 0.4 mm 1 mps 685 mmHg 77%
    05:00 +11°C° 0.4 mm 1 mps 685 mmHg 76%
    06:00 +11°C° 0.4 mm 1 mps 685 mmHg 75%
    07:00 +12°C° 0.6 mm 1 mps 685 mmHg 68%
    08:00 +13°C° 0.6 mm 1 mps 686 mmHg 61%
    09:00 +14°C° 0.6 mm 1 mps 686 mmHg 54%
    10:00 +14°C° 0.3 mm 2 mps 686 mmHg 50%
    11:00 +14°C° 0.3 mm 3 mps 686 mmHg 46%
    12:00 +15°C° 0.3 mm 4 mps 687 mmHg 42%
    13:00 +15°C° 0.2 mm 5 mps 687 mmHg 42%
    14:00 +15°C° 0.2 mm 5 mps 687 mmHg 42%
    15:00 +15°C° 0.2 mm 6 mps 687 mmHg 43%
    16:00 +15°C° 0.1 mm 6 mps 687 mmHg 44%
    17:00 +14°C° 0.1 mm 5 mps 688 mmHg 46%
    18:00 +14°C° 0.1 mm 5 mps 688 mmHg 48%
    19:00 +13°C° 0 mm 4 mps 689 mmHg 51%
    20:00 +13°C° 0 mm 3 mps 689 mmHg 55%
    21:00 +13°C° 0 mm 2 mps 690 mmHg 58%
    22:00 +13°C° 0 mm 2 mps 690 mmHg 59%
    23:00 +13°C° 0 mm 1 mps 691 mmHg 61%

    Tomorrow, 5 April, Sunday

    Time Temperature Precipitation Wind Pressure Humidity
    00:00 +12°C° 0 mm 1 mps 691 mmHg 62%
    01:00 +12°C° 0 mm 1 mps 691 mmHg 64%
    02:00 +11°C° 0 mm 1 mps 691 mmHg 66%
    03:00 +11°C° 0 mm 1 mps 690 mmHg 67%
    04:00 +10°C° 0 mm 1 mps 691 mmHg 68%
    05:00 +9°C° 0 mm 0 mps 691 mmHg 69%
    06:00 +9°C° 0 mm 0 mps 691 mmHg 71%
    07:00 +10°C° 0 mm 0 mps 691 mmHg 64%
    08:00 +12°C° 0 mm 1 mps 691 mmHg 58%
    09:00 +13°C° 0 mm 1 mps 691 mmHg 52%
    10:00 +15°C° 0 mm 1 mps 691 mmHg 49%
    11:00 +16°C° 0 mm 1 mps 691 mmHg 45%
    12:00 +18°C° 0 mm 1 mps 691 mmHg 41%
    13:00 +18°C° 0 mm 1 mps 690 mmHg 38%
    14:00 +19°C° 0 mm 1 mps 690 mmHg 35%
    15:00 +19°C° 0 mm 2 mps 690 mmHg 32%
    16:00 +20°C° 0 mm 1 mps 690 mmHg 34%
    17:00 +20°C° 0 mm 1 mps 689 mmHg 35%
    18:00 +20°C° 0 mm 1 mps 689 mmHg 37%
    19:00 +19°C° 0 mm 1 mps 689 mmHg 40%
    20:00 +18°C° 0 mm 1 mps 690 mmHg 44%
    21:00 +16°C° 0 mm 1 mps 690 mmHg 48%
    22:00 +16°C° 0 mm 1 mps 689 mmHg 47%
    23:00 +16°C° 0 mm 1 mps 689 mmHg 46%

    Day after tomorrow, 6 April, Monday

    Time Temperature Precipitation Wind Pressure Humidity
    00:00 +16°C° 0 mm 1 mps 689 mmHg 46%
    01:00 +16°C° 0 mm 1 mps 689 mmHg 48%
    02:00 +15°C° 0 mm 1 mps 688 mmHg 49%
    03:00 +15°C° 0 mm 1 mps 688 mmHg 51%
    04:00 +14°C° 0 mm 1 mps 688 mmHg 53%
    05:00 +14°C° 0 mm 1 mps 688 mmHg 56%
    06:00 +13°C° 0 mm 0 mps 688 mmHg 58%
    07:00 +14°C° 0 mm 1 mps 688 mmHg 54%
    08:00 +15°C° 0 mm 1 mps 688 mmHg 50%
    09:00 +16°C° 0 mm 1 mps 689 mmHg 47%
    10:00 +18°C° 0 mm 1 mps 689 mmHg 46%
    11:00 +17°C° 0 mm 2 mps 689 mmHg 46%
    12:00 +18°C° 0 mm 2 mps 689 mmHg 45%
    13:00 +17°C° 0.2 mm 2 mps 689 mmHg 49%
    14:00 +18°C° 0.2 mm 1 mps 689 mmHg 53%
    15:00 +16°C° 0.2 mm 1 mps 688 mmHg 57%
    16:00 +15°C° 1.6 mm 1 mps 688 mmHg 66%
    17:00 +14°C° 1.6 mm 1 mps 688 mmHg 76%
    18:00 +13°C° 1.6 mm 1 mps 688 mmHg 85%
    19:00 +13°C° 0.8 mm 1 mps 688 mmHg 85%
    20:00 +13°C° 0.8 mm 1 mps 688 mmHg 85%
    21:00 +13°C° 0.8 mm 1 mps 688 mmHg 84%
    22:00 +13°C° 0.6 mm 1 mps 688 mmHg 84%
    23:00 +13°C° 0.6 mm 2 mps 688 mmHg 84%

    7 April, Tuesday

    Time Temperature Precipitation Wind Pressure Humidity
    00:00 +12°C° 0.6 mm 3 mps 688 mmHg 84%
    01:00 +11°C° 1.1 mm 3 mps 688 mmHg 84%
    02:00 +10°C° 1.1 mm 3 mps 688 mmHg 85%
    03:00 +10°C° 1.1 mm 3 mps 687 mmHg 85%
    04:00 +9°C° 0.5 mm 3 mps 688 mmHg 83%
    05:00 +9°C° 0.5 mm 3 mps 688 mmHg 80%
    06:00 +9°C° 0.5 mm 3 mps 688 mmHg 78%
    07:00 +9°C° 0.1 mm 3 mps 688 mmHg 75%
    08:00 +9°C° 0.1 mm 3 mps 688 mmHg 73%
    09:00 +9°C° 0.1 mm 2 mps 688 mmHg 70%
    10:00 +9°C° 0.1 mm 2 mps 688 mmHg 68%
    11:00 +9°C° 0.1 mm 2 mps 688 mmHg 67%
    12:00 +10°C° 0.1 mm 2 mps 688 mmHg 65%
    13:00 +10°C° 0 mm 2 mps 688 mmHg 64%
    14:00 +10°C° 0 mm 2 mps 688 mmHg 63%
    15:00 +12°C° 0 mm 2 mps 688 mmHg 63%
    16:00 +10°C° 0 mm 2 mps 688 mmHg 63%
    17:00 +10°C° 0 mm 2 mps 688 mmHg 64%
    18:00 +10°C° 0 mm 2 mps 688 mmHg 65%
    19:00 +9°C° 0 mm 2 mps 688 mmHg 66%
    20:00 +9°C° 0 mm 2 mps 689 mmHg 66%
    21:00 +8°C° 0 mm 3 mps 689 mmHg 67%
    22:00 +8°C° 0 mm 3 mps 689 mmHg 67%
    23:00 +7°C° 0 mm 3 mps 689 mmHg 67%

    8 April, Wednesday

    Time Temperature Precipitation Wind Pressure Humidity
    00:00 +7°C° 0 mm 3 mps 689 mmHg 68%
    01:00 +7°C° 0 mm 3 mps 690 mmHg 67%
    02:00 +5°C° 0 mm 3 mps 690 mmHg 66%
    03:00 +6°C° 0 mm 2 mps 690 mmHg 65%
    04:00 +6°C° 0 mm 2 mps 690 mmHg 65%
    05:00 +6°C° 0 mm 2 mps 690 mmHg 65%
    06:00 +6°C° 0 mm 2 mps 690 mmHg 65%
    07:00 +6°C° 0 mm 2 mps 690 mmHg 62%
    08:00 +7°C° 0 mm 2 mps 690 mmHg 59%
    09:00 +8°C° 0 mm 3 mps 690 mmHg 56%
    10:00 +9°C° 0 mm 3 mps 690 mmHg 53%
    11:00 +10°C° 0 mm 3 mps 689 mmHg 50%
    12:00 +12°C° 0 mm 3 mps 689 mmHg 47%
    13:00 +12°C° 0 mm 3 mps 689 mmHg 47%
    14:00 +12°C° 0 mm 3 mps 688 mmHg 47%
    15:00 +13°C° 0 mm 3 mps 688 mmHg 47%
    16:00 +12°C° 0 mm 3 mps 688 mmHg 50%
    17:00 +11°C° 0 mm 3 mps 687 mmHg 54%
    18:00 +11°C° 0 mm 4 mps 687 mmHg 57%
    19:00 +10°C° 0 mm 4 mps 687 mmHg 60%
    20:00 +8°C° 0 mm 4 mps 687 mmHg 62%
    21:00 +9°C° 0 mm 3 mps 687 mmHg 65%
    22:00 +9°C° 0 mm 3 mps 686 mmHg 65%
    23:00 +8°C° 0 mm 3 mps 686 mmHg 65%

    9 April, Thursday

    Time Temperature Precipitation Wind Pressure Humidity
    00:00 +8°C° 0 mm 3 mps 686 mmHg 66%
    01:00 +8°C° 0 mm 2 mps 685 mmHg 66%
    02:00 +8°C° 0 mm 2 mps 685 mmHg 67%
    03:00 +9°C° 0 mm 1 mps 684 mmHg 67%
    04:00 +9°C° 0 mm 1 mps 684 mmHg 68%
    05:00 +8°C° 0 mm 1 mps 684 mmHg 70%
    06:00 +8°C° 0 mm 1 mps 683 mmHg 71%
    07:00 +9°C° 0 mm 1 mps 683 mmHg 68%
    08:00 +10°C° 0 mm 1 mps 683 mmHg 65%
    09:00 +11°C° 0 mm 1 mps 683 mmHg 62%
    10:00 +12°C° 0 mm 1 mps 683 mmHg 58%
    11:00 +14°C° 0 mm 1 mps 683 mmHg 55%
    12:00 +15°C° 0 mm 1 mps 682 mmHg 51%
    13:00 +16°C° 0 mm 1 mps 682 mmHg 49%
    14:00 +16°C° 0 mm 1 mps 682 mmHg 47%
    15:00 +17°C° 0 mm 2 mps 681 mmHg 45%
    16:00 +16°C° 0.7 mm 3 mps 681 mmHg 53%
    17:00 +14°C° 0.7 mm 4 mps 680 mmHg 60%
    18:00 +13°C° 0.7 mm 5 mps 680 mmHg 68%
    19:00 +12°C° 1.9 mm 4 mps 680 mmHg 72%
    20:00 +11°C° 1.9 mm 3 mps 681 mmHg 77%
    21:00 +10°C° 1.9 mm 3 mps 681 mmHg 81%
    22:00 +10°C° 0.1 mm 2 mps 681 mmHg 79%
    23:00 +10°C° 0.1 mm 2 mps 681 mmHg 77%
    Show more